User: anonymous   Login
Location: Sternwarte ZA, Rosenfeld-Brittheim
(48.2889°N, 8.6789°E)
Time: 09:10:15
(UTC+01:00)
Language:

ISS - Orbit

View from above orbital plane
View from above orbital plane
View from above satellite
View from above satellite

Ground track
Ground track

The orbit data is extracted from the following two-line orbital elements,

1 25544U 98067A   18055.54493747  .00016717  00000-0  10270-3 0  9010
2 25544  51.6354 220.2641 0003197 130.5210 229.6221 15.54104949 20991
Epoch (UTC): 24 February 2018 13:04:42
Eccentricity: 0.0003197
inclination: 51.6354°
perigee height: 402 km
apogee height: 407 km
right ascension of ascending node: 220.2641°
argument of perigee: 130.5210°
revolutions per day: 15.54104949
mean anomaly at epoch: 229.6221°
orbit number at epoch: 2099

The dashed part of the orbit path shows where the satellite is in the earth's shadow,  

DLR